Time,TemperatureF,DewpointF,PressureIn,WindDirection,WindDirectionDegrees,WindSpeedMPH,WindSpeedGustMPH,Humidity,HourlyPrecipIn,Conditions,Clouds,dailyrainin,SolarRadiationWatts/m^2,SoftwareType,DateUTC
2013-04-12 00:00:00,61.9,52.8,29.79,WNW,294,0.0,3.0,72,0.00,,,0.00,0.0,WUHU216DAVISVP2,2013-04-12 07:00:00,
2013-04-12 00:05:00,61.8,52.7,29.79,WNW,294,0.0,3.0,72,0.00,,,0.00,0.0,WUHU216DAVISVP2,2013-04-12 07:05:00,
2013-04-12 00:10:00,61.7,52.6,29.79,WNW,294,0.0,3.0,72,0.00,,,0.00,0.0,WUHU216DAVISVP2,2013-04-12 07:10:00,
2013-04-12 00:15:00,61.6,52.5,29.79,WNW,294,0.0,2.0,72,0.00,,,0.00,0.0,WUHU216DAVISVP2,2013-04-12 07:15:00,
2013-04-12 00:20:00,61.5,52.4,29.79,WNW,294,0.0,2.0,72,0.00,,,0.00,0.0,WUHU216DAVISVP2,2013-04-12 07:20:00,
2013-04-12 00:25:00,61.4,52.4,29.79,WNW,294,0.0,0.0,72,0.00,,,0.00,0.0,WUHU216DAVISVP2,2013-04-12 07:25:00,
2013-04-12 00:30:00,61.3,52.7,29.79,WNW,294,0.0,0.0,73,0.00,,,0.00,0.0,WUHU216DAVISVP2,2013-04-12 07:30:00,
2013-04-12 00:35:00,61.2,52.2,29.79,WNW,294,0.0,0.0,72,0.00,,,0.00,0.0,WUHU216DAVISVP2,2013-04-12 07:35:00,
2013-04-12 00:40:00,61.0,52.0,29.79,WNW,294,0.0,0.0,72,0.00,,,0.00,0.0,WUHU216DAVISVP2,2013-04-12 07:40:00,
2013-04-12 00:45:00,60.3,52.1,29.79,WNW,294,0.0,0.0,74,0.00,,,0.00,0.0,WUHU216DAVISVP2,2013-04-12 07:45:00,
2013-04-12 00:50:00,59.9,52.1,29.79,WNW,294,0.0,0.0,75,0.00,,,0.00,0.0,WUHU216DAVISVP2,2013-04-12 07:50:00,
2013-04-12 00:55:00,59.7,52.2,29.79,WNW,294,0.0,0.0,76,0.00,,,0.00,0.0,WUHU216DAVISVP2,2013-04-12 07:55:00,
2013-04-12 01:00:00,59.8,52.0,29.79,WNW,294,0.0,1.0,75,0.00,,,0.00,0.0,WUHU216DAVISVP2,2013-04-12 08:00:00,
2013-04-12 01:06:00,59.7,51.9,29.79,WNW,294,0.0,1.0,75,0.00,,,0.00,0.0,WUHU216DAVISVP2,2013-04-12 08:06:00,
2013-04-12 01:10:00,59.5,51.7,29.79,WNW,294,0.0,1.0,75,0.00,,,0.00,0.0,WUHU216DAVISVP2,2013-04-12 08:10:00,
2013-04-12 01:16:00,59.3,51.8,29.79,WNW,294,0.0,0.0,76,0.00,,,0.00,0.0,WUHU216DAVISVP2,2013-04-12 08:16:00,
2013-04-12 01:20:00,59.2,51.7,29.79,WNW,294,0.0,0.0,76,0.00,,,0.00,0.0,WUHU216DAVISVP2,2013-04-12 08:20:00,
2013-04-12 01:25:00,58.7,51.6,29.79,WNW,294,0.0,0.0,77,0.00,,,0.00,0.0,WUHU216DAVISVP2,2013-04-12 08:25:00,
2013-04-12 01:30:00,58.5,51.7,29.79,WNW,294,0.0,0.0,78,0.00,,,0.00,0.0,WUHU216DAVISVP2,2013-04-12 08:30:00,
2013-04-12 01:35:00,58.4,51.6,29.79,WNW,294,0.0,0.0,78,0.00,,,0.00,0.0,WUHU216DAVISVP2,2013-04-12 08:35:00,
2013-04-12 01:40:00,58.3,51.5,29.79,WNW,294,0.0,0.0,78,0.00,,,0.00,0.0,WUHU216DAVISVP2,2013-04-12 08:40:00,
2013-04-12 01:45:00,58.1,51.7,29.79,WNW,294,0.0,0.0,79,0.00,,,0.00,0.0,WUHU216DAVISVP2,2013-04-12 08:45:00,
2013-04-12 01:50:00,58.1,51.7,29.79,WNW,294,0.0,0.0,79,0.00,,,0.00,0.0,WUHU216DAVISVP2,2013-04-12 08:50:00,
2013-04-12 01:55:00,58.2,51.4,29.79,WNW,294,0.0,0.0,78,0.00,,,0.00,0.0,WUHU216DAVISVP2,2013-04-12 08:55:00,
2013-04-12 02:00:00,58.0,51.2,29.79,WNW,294,0.0,0.0,78,0.00,,,0.00,0.0,WUHU216DAVISVP2,2013-04-12 09:00:00,
2013-04-12 02:05:00,57.8,51.3,29.79,WNW,294,0.0,0.0,79,0.00,,,0.00,0.0,WUHU216DAVISVP2,2013-04-12 09:05:00,
2013-04-12 02:10:00,57.6,51.1,29.79,WNW,294,0.0,0.0,79,0.00,,,0.00,0.0,WUHU216DAVISVP2,2013-04-12 09:10:00,
2013-04-12 02:15:00,57.6,51.1,29.79,WNW,294,0.0,0.0,79,0.00,,,0.00,0.0,WUHU216DAVISVP2,2013-04-12 09:15:00,
2013-04-12 02:20:00,57.5,51.0,29.78,WNW,294,0.0,0.0,79,0.00,,,0.00,0.0,WUHU216DAVISVP2,2013-04-12 09:20:00,
2013-04-12 02:25:00,57.4,51.3,29.78,WNW,294,0.0,0.0,80,0.00,,,0.00,0.0,WUHU216DAVISVP2,2013-04-12 09:25:00,
2013-04-12 02:30:00,57.3,51.2,29.78,WNW,294,0.0,0.0,80,0.00,,,0.00,0.0,WUHU216DAVISVP2,2013-04-12 09:30:00,
2013-04-12 02:35:00,57.3,51.2,29.78,WNW,294,0.0,0.0,80,0.00,,,0.00,0.0,WUHU216DAVISVP2,2013-04-12 09:35:00,
2013-04-12 02:40:00,57.2,51.1,29.78,WNW,294,0.0,0.0,80,0.00,,,0.00,0.0,WUHU216DAVISVP2,2013-04-12 09:40:00,
2013-04-12 02:45:00,57.2,51.1,29.78,WNW,294,0.0,0.0,80,0.00,,,0.00,0.0,WUHU216DAVISVP2,2013-04-12 09:45:00,
2013-04-12 02:50:00,57.2,51.1,29.78,WNW,294,0.0,0.0,80,0.00,,,0.00,0.0,WUHU216DAVISVP2,2013-04-12 09:50:00,
2013-04-12 02:55:00,57.3,51.2,29.78,WNW,294,0.0,0.0,80,0.00,,,0.00,0.0,WUHU216DAVISVP2,2013-04-12 09:55:00,
2013-04-12 03:00:00,57.3,51.2,29.78,WNW,294,0.0,0.0,80,0.00,,,0.00,0.0,WUHU216DAVISVP2,2013-04-12 10:00:00,
2013-04-12 03:05:00,57.2,51.1,29.78,WNW,294,0.0,0.0,80,0.00,,,0.00,0.0,WUHU216DAVISVP2,2013-04-12 10:05:00,
2013-04-12 03:10:00,57.2,51.1,29.78,WNW,294,0.0,0.0,80,0.00,,,0.00,0.0,WUHU216DAVISVP2,2013-04-12 10:10:00,
2013-04-12 03:15:00,57.3,51.2,29.78,WNW,294,0.0,0.0,80,0.00,,,0.00,0.0,WUHU216DAVISVP2,2013-04-12 10:15:00,
2013-04-12 03:20:00,57.4,50.9,29.78,WNW,294,0.0,0.0,79,0.00,,,0.00,0.0,WUHU216DAVISVP2,2013-04-12 10:20:00,
2013-04-12 03:25:00,57.3,50.5,29.78,WNW,294,0.0,0.0,78,0.00,,,0.00,0.0,WUHU216DAVISVP2,2013-04-12 10:25:00,
2013-04-12 03:30:00,57.2,50.4,29.78,WNW,294,0.0,0.0,78,0.00,,,0.00,0.0,WUHU216DAVISVP2,2013-04-12 10:30:00,
2013-04-12 03:35:00,57.1,50.7,29.78,WNW,294,0.0,0.0,79,0.00,,,0.00,0.0,WUHU216DAVISVP2,2013-04-12 10:35:00,
2013-04-12 03:40:00,57.0,50.3,29.79,WNW,294,0.0,0.0,78,0.00,,,0.00,0.0,WUHU216DAVISVP2,2013-04-12 10:40:00,
2013-04-12 03:45:00,56.9,50.2,29.79,WNW,294,0.0,0.0,78,0.00,,,0.00,0.0,WUHU216DAVISVP2,2013-04-12 10:45:00,
2013-04-12 03:50:00,56.8,50.4,29.79,WNW,294,0.0,0.0,79,0.00,,,0.00,0.0,WUHU216DAVISVP2,2013-04-12 10:50:00,
2013-04-12 03:55:00,56.7,50.3,29.79,WNW,294,0.0,0.0,79,0.00,,,0.00,0.0,WUHU216DAVISVP2,2013-04-12 10:55:00,
2013-04-12 04:00:00,56.5,50.1,29.79,WNW,294,0.0,0.0,79,0.00,,,0.00,0.0,WUHU216DAVISVP2,2013-04-12 11:00:00,
2013-04-12 04:05:00,56.4,50.4,29.79,WNW,294,0.0,0.0,80,0.00,,,0.00,0.0,WUHU216DAVISVP2,2013-04-12 11:05:00,
2013-04-12 04:10:00,56.2,50.2,29.79,WNW,294,0.0,0.0,80,0.00,,,0.00,0.0,WUHU216DAVISVP2,2013-04-12 11:10:00,
2013-04-12 04:15:00,56.2,50.2,29.80,WNW,294,0.0,0.0,80,0.00,,,0.00,0.0,WUHU216DAVISVP2,2013-04-12 11:15:00,
2013-04-12 04:20:00,55.9,49.5,29.80,WNW,294,0.0,0.0,79,0.00,,,0.00,0.0,WUHU216DAVISVP2,2013-04-12 11:20:00,
2013-04-12 04:25:00,55.6,49.6,29.80,WNW,294,0.0,0.0,80,0.00,,,0.00,0.0,WUHU216DAVISVP2,2013-04-12 11:25:00,
2013-04-12 04:30:00,54.8,49.4,29.80,WNW,294,0.0,0.0,82,0.00,,,0.00,0.0,WUHU216DAVISVP2,2013-04-12 11:30:00,
2013-04-12 04:35:00,54.5,49.5,29.80,WNW,294,0.0,0.0,83,0.00,,,0.00,0.0,WUHU216DAVISVP2,2013-04-12 11:35:00,
2013-04-12 04:40:00,54.4,49.7,29.80,WNW,294,0.0,0.0,84,0.00,,,0.00,0.0,WUHU216DAVISVP2,2013-04-12 11:40:00,
2013-04-12 04:45:00,54.4,49.4,29.80,WNW,294,0.0,0.0,83,0.00,,,0.00,0.0,WUHU216DAVISVP2,2013-04-12 11:45:00,
2013-04-12 04:50:00,54.4,49.7,29.80,WNW,294,0.0,0.0,84,0.00,,,0.00,0.0,WUHU216DAVISVP2,2013-04-12 11:50:00,
2013-04-12 04:55:00,54.2,49.5,29.81,WNW,294,0.0,0.0,84,0.00,,,0.00,0.0,WUHU216DAVISVP2,2013-04-12 11:55:00,
2013-04-12 05:00:00,53.5,49.1,29.81,WNW,294,0.0,0.0,85,0.00,,,0.00,0.0,WUHU216DAVISVP2,2013-04-12 12:00:00,
2013-04-12 05:05:00,53.0,48.9,29.81,WNW,294,0.0,0.0,86,0.00,,,0.00,0.0,WUHU216DAVISVP2,2013-04-12 12:05:00,
2013-04-12 05:10:00,52.6,48.8,29.81,WNW,294,1.0,2.0,87,0.00,,,0.00,0.0,WUHU216DAVISVP2,2013-04-12 12:10:00,
2013-04-12 05:15:00,52.4,48.9,29.81,WNW,294,0.0,2.0,88,0.00,,,0.00,0.0,WUHU216DAVISVP2,2013-04-12 12:15:00,
2013-04-12 05:20:00,52.2,49.0,29.81,WNW,294,0.0,2.0,89,0.00,,,0.00,0.0,WUHU216DAVISVP2,2013-04-12 12:20:00,
2013-04-12 05:25:00,52.1,49.3,29.81,WNW,294,0.0,2.0,90,0.00,,,0.00,0.0,WUHU216DAVISVP2,2013-04-12 12:25:00,
2013-04-12 05:30:00,52.1,49.3,29.81,WNW,294,0.0,1.0,90,0.00,,,0.00,0.0,WUHU216DAVISVP2,2013-04-12 12:30:00,
2013-04-12 05:35:00,52.2,49.4,29.81,WNW,294,2.0,2.0,90,0.00,,,0.00,0.0,WUHU216DAVISVP2,2013-04-12 12:35:00,
2013-04-12 05:40:00,52.4,49.8,29.81,WNW,294,1.0,2.0,91,0.00,,,0.00,0.0,WUHU216DAVISVP2,2013-04-12 12:40:00,
2013-04-12 05:45:00,52.5,49.7,29.81,WNW,294,0.0,2.0,90,0.00,,,0.00,0.0,WUHU216DAVISVP2,2013-04-12 12:45:00,
2013-04-12 05:50:00,52.7,49.5,29.81,WNW,294,0.0,2.0,89,0.00,,,0.00,0.0,WUHU216DAVISVP2,2013-04-12 12:50:00,
2013-04-12 05:56:00,52.9,49.7,29.81,WNW,294,1.0,2.0,89,0.00,,,0.00,0.0,WUHU216DAVISVP2,2013-04-12 12:56:00,
2013-04-12 06:01:00,53.1,49.6,29.81,WNW,294,0.0,2.0,88,0.00,,,0.00,0.0,WUHU216DAVISVP2,2013-04-12 13:01:00,
2013-04-12 06:06:00,53.3,49.8,29.81,WNW,294,1.0,2.0,88,0.00,,,0.00,0.0,WUHU216DAVISVP2,2013-04-12 13:06:00,
2013-04-12 06:11:00,53.4,49.6,29.81,WNW,294,0.0,2.0,87,0.00,,,0.00,0.0,WUHU216DAVISVP2,2013-04-12 13:11:00,
2013-04-12 06:16:00,53.4,49.6,29.81,WNW,294,0.0,2.0,87,0.00,,,0.00,0.0,WUHU216DAVISVP2,2013-04-12 13:16:00,
2013-04-12 06:21:00,53.2,49.4,29.81,WNW,294,0.0,2.0,87,0.00,,,0.00,0.0,WUHU216DAVISVP2,2013-04-12 13:21:00,
2013-04-12 06:26:00,53.1,49.3,29.81,WNW,294,0.0,1.0,87,0.00,,,0.00,0.0,WUHU216DAVISVP2,2013-04-12 13:26:00,
2013-04-12 06:31:00,53.2,49.4,29.81,WNW,294,0.0,1.0,87,0.00,,,0.00,5.0,WUHU216DAVISVP2,2013-04-12 13:31:00,
2013-04-12 06:35:00,53.3,49.5,29.81,WNW,294,0.0,1.0,87,0.00,,,0.00,9.0,WUHU216DAVISVP2,2013-04-12 13:35:00,
2013-04-12 06:40:00,53.4,49.6,29.82,WNW,294,0.0,1.0,87,0.00,,,0.00,12.0,WUHU216DAVISVP2,2013-04-12 13:40:00,
2013-04-12 06:45:00,53.5,49.7,29.82,WNW,294,0.0,0.0,87,0.00,,,0.00,18.0,WUHU216DAVISVP2,2013-04-12 13:45:00,
2013-04-12 06:50:00,53.7,49.6,29.82,WNW,294,0.0,0.0,86,0.00,,,0.00,26.0,WUHU216DAVISVP2,2013-04-12 13:50:00,
2013-04-12 06:55:00,53.7,49.6,29.82,WNW,294,0.0,0.0,86,0.00,,,0.00,35.0,WUHU216DAVISVP2,2013-04-12 13:55:00,
2013-04-12 07:01:00,53.7,49.6,29.82,WNW,294,0.0,0.0,86,0.00,,,0.00,46.0,WUHU216DAVISVP2,2013-04-12 14:01:00,
2013-04-12 07:06:00,53.9,49.8,29.82,WNW,294,0.0,0.0,86,0.00,,,0.00,58.0,WUHU216DAVISVP2,2013-04-12 14:06:00,
2013-04-12 07:11:00,54.2,50.1,29.82,WNW,294,0.0,0.0,86,0.00,,,0.00,74.0,WUHU216DAVISVP2,2013-04-12 14:11:00,
2013-04-12 07:16:00,54.6,50.2,29.83,WNW,294,0.0,0.0,85,0.00,,,0.00,88.0,WUHU216DAVISVP2,2013-04-12 14:16:00,
2013-04-12 07:21:00,55.0,50.3,29.83,WNW,294,0.0,1.0,84,0.00,,,0.00,102.0,WUHU216DAVISVP2,2013-04-12 14:21:00,
2013-04-12 07:26:00,55.4,50.3,29.83,WNW,294,1.0,4.0,83,0.00,,,0.00,120.0,WUHU216DAVISVP2,2013-04-12 14:26:00,
2013-04-12 07:30:00,55.8,50.7,29.83,SW,228,2.0,4.0,83,0.00,,,0.00,137.0,WUHU216DAVISVP2,2013-04-12 14:30:00,
2013-04-12 07:35:00,56.2,50.8,29.84,SSW,206,0.0,5.0,82,0.00,,,0.00,153.0,WUHU216DAVISVP2,2013-04-12 14:35:00,
2013-04-12 07:40:00,56.5,50.8,29.84,SSW,203,3.0,5.0,81,0.00,,,0.00,171.0,WUHU216DAVISVP2,2013-04-12 14:40:00,
2013-04-12 07:46:00,56.9,50.8,29.84,SSW,203,3.0,5.0,80,0.00,,,0.00,188.0,WUHU216DAVISVP2,2013-04-12 14:46:00,
2013-04-12 07:51:00,57.3,50.9,29.84,SSW,203,3.0,5.0,79,0.00,,,0.00,206.0,WUHU216DAVISVP2,2013-04-12 14:51:00,
2013-04-12 07:56:00,57.6,50.9,29.84,SSW,203,0.0,5.0,78,0.00,,,0.00,220.0,WUHU216DAVISVP2,2013-04-12 14:56:00,
2013-04-12 08:01:00,58.1,51.0,29.84,SSW,203,2.0,5.0,77,0.00,,,0.00,237.0,WUHU216DAVISVP2,2013-04-12 15:01:00,
2013-04-12 08:06:00,58.4,51.0,29.85,SSW,203,0.0,4.0,76,0.00,,,0.00,255.0,WUHU216DAVISVP2,2013-04-12 15:06:00,
2013-04-12 08:11:00,58.6,50.8,29.85,SSW,203,0.0,4.0,75,0.00,,,0.00,271.0,WUHU216DAVISVP2,2013-04-12 15:11:00,
2013-04-12 08:16:00,58.8,50.6,29.85,SSW,203,2.0,4.0,74,0.00,,,0.00,287.0,WUHU216DAVISVP2,2013-04-12 15:16:00,
2013-04-12 08:21:00,59.0,50.5,29.85,SSW,203,0.0,5.0,73,0.00,,,0.00,304.0,WUHU216DAVISVP2,2013-04-12 15:21:00,
2013-04-12 08:26:00,59.5,50.6,29.85,SSW,203,1.0,5.0,72,0.00,,,0.00,322.0,WUHU216DAVISVP2,2013-04-12 15:26:00,
2013-04-12 08:31:00,59.9,51.0,29.86,SSE,167,0.0,5.0,72,0.00,,,0.00,339.0,WUHU216DAVISVP2,2013-04-12 15:31:00,
2013-04-12 08:36:00,60.9,51.6,29.86,SSE,167,0.0,4.0,71,0.00,,,0.00,353.0,WUHU216DAVISVP2,2013-04-12 15:36:00,
2013-04-12 08:41:00,61.6,51.5,29.86,SSE,167,0.0,4.0,69,0.00,,,0.00,371.0,WUHU216DAVISVP2,2013-04-12 15:41:00,
2013-04-12 08:45:00,61.7,50.8,29.86,SSE,167,0.0,4.0,67,0.00,,,0.00,388.0,WUHU216DAVISVP2,2013-04-12 15:45:00,
2013-04-12 08:51:00,61.9,51.4,29.87,SW,232,3.0,4.0,68,0.00,,,0.00,404.0,WUHU216DAVISVP2,2013-04-12 15:51:00,
2013-04-12 08:56:00,62.1,51.2,29.87,SW,232,1.0,4.0,67,0.00,,,0.00,422.0,WUHU216DAVISVP2,2013-04-12 15:56:00,
2013-04-12 09:00:00,62.1,51.2,29.87,SSW,212,1.0,5.0,67,0.00,,,0.00,438.0,WUHU216DAVISVP2,2013-04-12 16:00:00,
2013-04-12 09:06:00,62.2,50.9,29.87,SSW,211,0.0,5.0,66,0.00,,,0.00,452.0,WUHU216DAVISVP2,2013-04-12 16:06:00,
2013-04-12 09:11:00,62.7,50.9,29.87,SSW,211,0.0,5.0,65,0.00,,,0.00,469.0,WUHU216DAVISVP2,2013-04-12 16:11:00,
2013-04-12 09:16:00,63.0,51.2,29.87,SSW,211,3.0,5.0,65,0.00,,,0.00,487.0,WUHU216DAVISVP2,2013-04-12 16:16:00,
2013-04-12 09:21:00,63.6,51.4,29.87,South,187,0.0,4.0,64,0.00,,,0.00,504.0,WUHU216DAVISVP2,2013-04-12 16:21:00,
2013-04-12 09:26:00,64.0,51.3,29.87,South,184,2.0,4.0,63,0.00,,,0.00,517.0,WUHU216DAVISVP2,2013-04-12 16:26:00,
2013-04-12 09:31:00,64.1,51.4,29.87,South,184,0.0,6.0,63,0.00,,,0.00,533.0,WUHU216DAVISVP2,2013-04-12 16:31:00,
2013-04-12 09:36:00,64.5,50.9,29.87,South,184,2.0,6.0,61,0.00,,,0.00,550.0,WUHU216DAVISVP2,2013-04-12 16:36:00,
2013-04-12 09:41:00,64.7,51.5,29.87,South,184,3.0,6.0,62,0.00,,,0.00,563.0,WUHU216DAVISVP2,2013-04-12 16:41:00,
2013-04-12 09:46:00,65.2,51.1,29.87,SSW,206,3.0,5.0,60,0.00,,,0.00,575.0,WUHU216DAVISVP2,2013-04-12 16:46:00,
2013-04-12 09:51:00,65.4,51.8,29.87,SW,230,0.0,5.0,61,0.00,,,0.00,592.0,WUHU216DAVISVP2,2013-04-12 16:51:00,
2013-04-12 09:56:00,66.5,51.9,29.86,SE,138,4.0,5.0,59,0.00,,,0.00,568.0,WUHU216DAVISVP2,2013-04-12 16:56:00,
2013-04-12 10:01:00,66.4,51.3,29.87,South,188,5.0,9.0,58,0.00,,,0.00,598.0,WUHU216DAVISVP2,2013-04-12 17:01:00,
2013-04-12 10:06:00,66.3,51.2,29.87,SSE,168,3.0,9.0,58,0.00,,,0.00,633.0,WUHU216DAVISVP2,2013-04-12 17:06:00,
2013-04-12 10:11:00,67.2,51.6,29.87,SE,140,2.0,9.0,57,0.00,,,0.00,647.0,WUHU216DAVISVP2,2013-04-12 17:11:00,
2013-04-12 10:16:00,67.5,51.9,29.87,SSE,160,5.0,9.0,57,0.00,,,0.00,599.0,WUHU216DAVISVP2,2013-04-12 17:16:00,
2013-04-12 10:22:00,67.6,52.0,29.87,South,175,6.0,7.0,57,0.00,,,0.00,671.0,WUHU216DAVISVP2,2013-04-12 17:22:00,
2013-04-12 10:27:00,67.6,51.0,29.87,SSW,204,2.0,9.0,55,0.00,,,0.00,680.0,WUHU216DAVISVP2,2013-04-12 17:27:00,
2013-04-12 10:32:00,68.0,51.3,29.87,South,185,4.0,9.0,55,0.00,,,0.00,696.0,WUHU216DAVISVP2,2013-04-12 17:32:00,
2013-04-12 10:37:00,68.3,50.6,29.87,South,169,2.0,8.0,53,0.00,,,0.00,701.0,WUHU216DAVISVP2,2013-04-12 17:37:00,
2013-04-12 10:42:00,68.6,50.4,29.86,SSE,168,4.0,8.0,52,0.00,,,0.00,712.0,WUHU216DAVISVP2,2013-04-12 17:42:00,
2013-04-12 10:47:00,68.8,51.1,29.87,SSW,196,4.0,8.0,53,0.00,,,0.00,722.0,WUHU216DAVISVP2,2013-04-12 17:47:00,
2013-04-12 10:52:00,68.9,50.6,29.87,SSW,198,5.0,7.0,52,0.00,,,0.00,731.0,WUHU216DAVISVP2,2013-04-12 17:52:00,
2013-04-12 10:57:00,69.3,51.5,29.87,South,178,1.0,8.0,53,0.00,,,0.00,744.0,WUHU216DAVISVP2,2013-04-12 17:57:00,
2013-04-12 11:03:00,69.9,50.5,29.86,SSW,209,0.0,8.0,50,0.00,,,0.00,754.0,WUHU216DAVISVP2,2013-04-12 18:03:00,
2013-04-12 11:08:00,70.3,51.4,29.86,West,267,4.0,7.0,51,0.00,,,0.00,763.0,WUHU216DAVISVP2,2013-04-12 18:08:00,
2013-04-12 11:13:00,70.5,50.5,29.86,South,171,3.0,7.0,49,0.00,,,0.00,773.0,WUHU216DAVISVP2,2013-04-12 18:13:00,
2013-04-12 11:18:00,70.7,51.2,29.86,South,186,3.0,7.0,50,0.00,,,0.00,780.0,WUHU216DAVISVP2,2013-04-12 18:18:00,
2013-04-12 11:23:00,70.8,51.3,29.86,SW,219,8.0,8.0,50,0.00,,,0.00,786.0,WUHU216DAVISVP2,2013-04-12 18:23:00,
2013-04-12 11:29:00,70.7,50.1,29.86,SW,226,6.0,8.0,48,0.00,,,0.00,795.0,WUHU216DAVISVP2,2013-04-12 18:29:00,
2013-04-12 11:30:00,70.6,50.6,29.86,WNW,284,7.0,9.0,49,0.00,,,0.00,796.0,WUHU216DAVISVP2,2013-04-12 18:30:00,
2013-04-12 11:31:00,70.7,50.6,29.86,WSW,252,4.0,9.0,49,0.00,,,0.00,798.0,WUHU216DAVISVP2,2013-04-12 18:31:00,
2013-04-12 11:33:00,70.8,50.7,29.86,WSW,255,3.0,9.0,49,0.00,,,0.00,800.0,WUHU216DAVISVP2,2013-04-12 18:33:00,
2013-04-12 11:34:00,70.9,50.8,29.86,SSW,209,2.0,9.0,49,0.00,,,0.00,802.0,WUHU216DAVISVP2,2013-04-12 18:34:00,
2013-04-12 11:36:00,71.0,50.9,29.86,South,189,2.0,9.0,49,0.00,,,0.00,807.0,WUHU216DAVISVP2,2013-04-12 18:36:00,
2013-04-12 11:39:00,71.5,50.8,29.86,SSW,206,5.0,9.0,48,0.00,,,0.00,814.0,WUHU216DAVISVP2,2013-04-12 18:39:00,
2013-04-12 11:40:00,71.5,50.8,29.86,SSW,194,3.0,9.0,48,0.00,,,0.00,816.0,WUHU216DAVISVP2,2013-04-12 18:40:00,
2013-04-12 11:43:00,71.9,51.8,29.86,SSE,167,0.0,9.0,49,0.00,,,0.00,817.0,WUHU216DAVISVP2,2013-04-12 18:43:00,
2013-04-12 11:45:00,72.2,51.5,29.86,SSW,204,1.0,9.0,48,0.00,,,0.00,819.0,WUHU216DAVISVP2,2013-04-12 18:45:00,
2013-04-12 11:46:00,72.6,52.4,29.86,WSW,240,4.0,9.0,49,0.00,,,0.00,819.0,WUHU216DAVISVP2,2013-04-12 18:46:00,
2013-04-12 11:48:00,72.6,51.2,29.86,SW,227,3.0,7.0,47,0.00,,,0.00,821.0,WUHU216DAVISVP2,2013-04-12 18:48:00,
2013-04-12 11:49:00,72.5,50.5,29.86,West,271,4.0,7.0,46,0.00,,,0.00,824.0,WUHU216DAVISVP2,2013-04-12 18:49:00,
2013-04-12 11:51:00,72.4,50.4,29.86,SW,215,3.0,9.0,46,0.00,,,0.00,826.0,WUHU216DAVISVP2,2013-04-12 18:51:00,
2013-04-12 11:52:00,72.3,50.4,29.86,SW,235,5.0,9.0,46,0.00,,,0.00,828.0,WUHU216DAVISVP2,2013-04-12 18:52:00,
2013-04-12 11:54:00,72.2,51.5,29.86,WSW,239,1.0,9.0,48,0.00,,,0.00,828.0,WUHU216DAVISVP2,2013-04-12 18:54:00,
2013-04-12 11:55:00,72.2,50.9,29.85,SW,218,2.0,9.0,47,0.00,,,0.00,831.0,WUHU216DAVISVP2,2013-04-12 18:55:00,
2013-04-12 11:58:00,72.3,50.4,29.85,SW,227,4.0,9.0,46,0.00,,,0.00,835.0,WUHU216DAVISVP2,2013-04-12 18:58:00,
2013-04-12 12:00:00,72.5,49.3,29.86,SSW,198,0.0,9.0,44,0.00,,,0.00,838.0,WUHU216DAVISVP2,2013-04-12 19:00:00,
2013-04-12 12:01:00,72.6,48.8,29.85,South,184,0.0,9.0,43,0.00,,,0.00,840.0,WUHU216DAVISVP2,2013-04-12 19:01:00,
2013-04-12 12:04:00,73.1,49.9,29.85,South,178,2.0,9.0,44,0.00,,,0.00,842.0,WUHU216DAVISVP2,2013-04-12 19:04:00,
2013-04-12 12:05:00,73.4,50.1,29.85,South,173,4.0,9.0,44,0.00,,,0.00,844.0,WUHU216DAVISVP2,2013-04-12 19:05:00,
2013-04-12 12:07:00,73.5,49.6,29.86,South,173,0.0,9.0,43,0.00,,,0.00,842.0,WUHU216DAVISVP2,2013-04-12 19:07:00,
2013-04-12 12:08:00,73.5,49.6,29.85,SE,144,1.0,9.0,43,0.00,,,0.00,846.0,WUHU216DAVISVP2,2013-04-12 19:08:00,
2013-04-12 12:12:00,73.9,51.2,29.85,SSW,209,1.0,7.0,45,0.00,,,0.00,849.0,WUHU216DAVISVP2,2013-04-12 19:12:00,
2013-04-12 12:13:00,74.2,52.1,29.85,WSW,254,4.0,7.0,46,0.00,,,0.00,849.0,WUHU216DAVISVP2,2013-04-12 19:13:00,
2013-04-12 12:15:00,74.1,51.4,29.85,WNW,295,2.0,7.0,45,0.00,,,0.00,849.0,WUHU216DAVISVP2,2013-04-12 19:15:00,
2013-04-12 12:16:00,74.2,52.1,29.85,WSW,247,3.0,7.0,46,0.00,,,0.00,849.0,WUHU216DAVISVP2,2013-04-12 19:16:00,
2013-04-12 12:26:00,73.8,50.5,29.85,SE,126,2.0,8.0,44,0.00,,,0.00,858.0,WUHU216DAVISVP2,2013-04-12 19:26:00,
2013-04-12 12:31:00,74.2,50.9,29.84,West,281,3.0,8.0,44,0.00,,,0.00,863.0,WUHU216DAVISVP2,2013-04-12 19:31:00,
2013-04-12 12:36:00,74.2,49.6,29.84,SSW,193,0.0,8.0,42,0.00,,,0.00,861.0,WUHU216DAVISVP2,2013-04-12 19:36:00,
2013-04-12 12:41:00,74.8,50.2,29.83,WSW,242,4.0,7.0,42,0.00,,,0.00,863.0,WUHU216DAVISVP2,2013-04-12 19:41:00,
2013-04-12 12:46:00,74.7,50.7,29.83,West,265,2.0,7.0,43,0.00,,,0.00,868.0,WUHU216DAVISVP2,2013-04-12 19:46:00,
2013-04-12 12:51:00,75.0,51.6,29.83,South,180,0.0,7.0,44,0.00,,,0.00,868.0,WUHU216DAVISVP2,2013-04-12 19:51:00,
2013-04-12 12:56:00,75.9,49.1,29.83,SSW,199,0.0,7.0,39,0.00,,,0.00,870.0,WUHU216DAVISVP2,2013-04-12 19:56:00,
2013-04-12 13:01:00,76.7,49.1,29.83,South,175,2.0,7.0,38,0.00,,,0.00,874.0,WUHU216DAVISVP2,2013-04-12 20:01:00,
2013-04-12 13:06:00,76.5,50.3,29.83,SSW,193,7.0,8.0,40,0.00,,,0.00,874.0,WUHU216DAVISVP2,2013-04-12 20:06:00,
2013-04-12 13:12:00,75.8,49.7,29.83,SSW,194,0.0,10.0,40,0.00,,,0.00,872.0,WUHU216DAVISVP2,2013-04-12 20:12:00,
2013-04-12 13:17:00,76.0,49.1,29.82,WSW,248,5.0,10.0,39,0.00,,,0.00,872.0,WUHU216DAVISVP2,2013-04-12 20:17:00,
2013-04-12 13:22:00,76.5,49.6,29.82,SSE,155,0.0,10.0,39,0.00,,,0.00,868.0,WUHU216DAVISVP2,2013-04-12 20:22:00,
2013-04-12 13:27:00,77.8,50.0,29.82,WSW,240,3.0,7.0,38,0.00,,,0.00,868.0,WUHU216DAVISVP2,2013-04-12 20:27:00,
2013-04-12 13:32:00,77.6,49.9,29.82,SW,226,0.0,7.0,38,0.00,,,0.00,863.0,WUHU216DAVISVP2,2013-04-12 20:32:00,
2013-04-12 13:37:00,77.8,50.0,29.82,SSW,211,0.0,7.0,38,0.00,,,0.00,856.0,WUHU216DAVISVP2,2013-04-12 20:37:00,
2013-04-12 13:42:00,77.4,49.7,29.82,SW,231,4.0,8.0,38,0.00,,,0.00,856.0,WUHU216DAVISVP2,2013-04-12 20:42:00,
2013-04-12 13:47:00,77.6,49.9,29.81,NW,306,0.0,8.0,38,0.00,,,0.00,854.0,WUHU216DAVISVP2,2013-04-12 20:47:00,
2013-04-12 13:52:00,78.0,50.2,29.81,NW,309,4.0,8.0,38,0.00,,,0.00,851.0,WUHU216DAVISVP2,2013-04-12 20:52:00,
2013-04-12 13:57:00,78.9,50.4,29.81,South,188,3.0,8.0,37,0.00,,,0.00,849.0,WUHU216DAVISVP2,2013-04-12 20:57:00,
2013-04-12 14:02:00,78.6,50.1,29.81,SSW,194,0.0,6.0,37,0.00,,,0.00,837.0,WUHU216DAVISVP2,2013-04-12 21:02:00,
2013-04-12 14:08:00,79.2,51.4,29.80,NW,315,3.0,6.0,38,0.00,,,0.00,840.0,WUHU216DAVISVP2,2013-04-12 21:08:00,
2013-04-12 14:13:00,79.6,50.3,29.80,SSW,206,1.0,7.0,36,0.00,,,0.00,837.0,WUHU216DAVISVP2,2013-04-12 21:13:00,
2013-04-12 14:18:00,79.6,49.5,29.80,South,186,1.0,7.0,35,0.00,,,0.00,824.0,WUHU216DAVISVP2,2013-04-12 21:18:00,
2013-04-12 14:23:00,80.0,50.6,29.80,SW,236,5.0,7.0,36,0.00,,,0.00,816.0,WUHU216DAVISVP2,2013-04-12 21:23:00,
2013-04-12 14:27:00,79.5,50.8,29.79,West,269,2.0,8.0,37,0.00,,,0.00,807.0,WUHU216DAVISVP2,2013-04-12 21:27:00,
2013-04-12 14:33:00,79.5,50.8,29.79,WNW,291,2.0,8.0,37,0.00,,,0.00,802.0,WUHU216DAVISVP2,2013-04-12 21:33:00,
2013-04-12 14:37:00,79.9,51.2,29.79,SSE,155,4.0,8.0,37,0.00,,,0.00,796.0,WUHU216DAVISVP2,2013-04-12 21:37:00,
2013-04-12 14:42:00,80.1,49.8,29.79,ESE,115,0.0,8.0,35,0.00,,,0.00,793.0,WUHU216DAVISVP2,2013-04-12 21:42:00,
2013-04-12 14:47:00,80.5,51.0,29.78,WSW,244,3.0,8.0,36,0.00,,,0.00,765.0,WUHU216DAVISVP2,2013-04-12 21:47:00,
2013-04-12 14:52:00,80.8,50.5,29.78,SSW,198,2.0,5.0,35,0.00,,,0.00,772.0,WUHU216DAVISVP2,2013-04-12 21:52:00,
2013-04-12 14:57:00,80.5,50.2,29.78,SW,231,6.0,9.0,35,0.00,,,0.00,752.0,WUHU216DAVISVP2,2013-04-12 21:57:00,
2013-04-12 15:03:00,80.9,49.8,29.78,SSW,193,3.0,9.0,34,0.00,,,0.00,761.0,WUHU216DAVISVP2,2013-04-12 22:03:00,
2013-04-12 15:08:00,81.2,50.0,29.78,SSW,194,2.0,9.0,34,0.00,,,0.00,747.0,WUHU216DAVISVP2,2013-04-12 22:08:00,
2013-04-12 15:12:00,81.7,49.7,29.77,SSW,194,0.0,7.0,33,0.00,,,0.00,742.0,WUHU216DAVISVP2,2013-04-12 22:12:00,
2013-04-12 15:18:00,81.9,49.8,29.77,SSW,193,1.0,5.0,33,0.00,,,0.00,733.0,WUHU216DAVISVP2,2013-04-12 22:18:00,
2013-04-12 15:23:00,82.1,50.0,29.77,South,173,2.0,6.0,33,0.00,,,0.00,726.0,WUHU216DAVISVP2,2013-04-12 22:23:00,
2013-04-12 15:28:00,82.4,51.1,29.77,WNW,294,3.0,6.0,34,0.00,,,0.00,707.0,WUHU216DAVISVP2,2013-04-12 22:28:00,
2013-04-12 15:33:00,82.2,51.0,29.77,WNW,286,7.0,8.0,34,0.00,,,0.00,696.0,WUHU216DAVISVP2,2013-04-12 22:33:00,
2013-04-12 15:38:00,81.3,51.0,29.77,WNW,302,4.0,8.0,35,0.00,,,0.00,687.0,WUHU216DAVISVP2,2013-04-12 22:38:00,
2013-04-12 15:49:00,81.9,50.8,29.77,NNW,336,5.0,8.0,34,0.00,,,0.00,670.0,WUHU216DAVISVP2,2013-04-12 22:49:00,
2013-04-12 15:54:00,82.2,50.9,29.77,WNW,294,6.0,8.0,34,0.00,,,0.00,649.0,WUHU216DAVISVP2,2013-04-12 22:54:00,
2013-04-12 15:59:00,82.3,50.2,29.76,NW,325,4.0,8.0,33,0.00,,,0.00,638.0,WUHU216DAVISVP2,2013-04-12 22:59:00,
2013-04-12 16:04:00,82.2,50.9,29.76,NNW,328,3.0,8.0,34,0.00,,,0.00,629.0,WUHU216DAVISVP2,2013-04-12 23:04:00,
2013-04-12 16:09:00,81.7,51.3,29.76,NW,306,3.0,8.0,35,0.00,,,0.00,513.0,WUHU216DAVISVP2,2013-04-12 23:09:00,
2013-04-12 16:14:00,81.8,51.3,29.76,WNW,283,4.0,8.0,35,0.00,,,0.00,496.0,WUHU216DAVISVP2,2013-04-12 23:14:00,
2013-04-12 16:19:00,81.5,51.1,29.75,WSW,240,6.0,8.0,35,0.00,,,0.00,554.0,WUHU216DAVISVP2,2013-04-12 23:19:00,
2013-04-12 16:24:00,81.3,50.9,29.75,West,269,0.0,8.0,35,0.00,,,0.00,580.0,WUHU216DAVISVP2,2013-04-12 23:24:00,
2013-04-12 16:29:00,81.6,51.2,29.75,NW,305,2.0,8.0,35,0.00,,,0.00,540.0,WUHU216DAVISVP2,2013-04-12 23:29:00,
2013-04-12 16:34:00,81.7,51.3,29.75,West,261,5.0,10.0,35,0.00,,,0.00,541.0,WUHU216DAVISVP2,2013-04-12 23:34:00,
2013-04-12 16:39:00,81.4,51.8,29.75,NW,306,3.0,10.0,36,0.00,,,0.00,519.0,WUHU216DAVISVP2,2013-04-12 23:39:00,
2013-04-12 16:44:00,82.0,51.5,29.75,NNW,336,2.0,10.0,35,0.00,,,0.00,519.0,WUHU216DAVISVP2,2013-04-12 23:44:00,
2013-04-12 16:49:00,82.2,50.9,29.75,WNW,300,5.0,10.0,34,0.00,,,0.00,408.0,WUHU216DAVISVP2,2013-04-12 23:49:00,
2013-04-12 16:54:00,81.3,50.1,29.75,WNW,292,3.0,9.0,34,0.00,,,0.00,438.0,WUHU216DAVISVP2,2013-04-12 23:54:00,
2013-04-12 16:59:00,81.2,50.8,29.75,WNW,298,1.0,9.0,35,0.00,,,0.00,448.0,WUHU216DAVISVP2,2013-04-12 23:59:00,
2013-04-12 17:04:00,81.7,51.3,29.75,NNW,336,1.0,9.0,35,0.00,,,0.00,434.0,WUHU216DAVISVP2,2013-04-13 00:04:00,
2013-04-12 17:09:00,81.8,51.3,29.75,WNW,294,3.0,7.0,35,0.00,,,0.00,417.0,WUHU216DAVISVP2,2013-04-13 00:09:00,
2013-04-12 17:14:00,81.7,52.0,29.75,North,350,2.0,7.0,36,0.00,,,0.00,415.0,WUHU216DAVISVP2,2013-04-13 00:14:00,
2013-04-12 17:19:00,81.9,52.2,29.75,NNW,342,0.0,7.0,36,0.00,,,0.00,362.0,WUHU216DAVISVP2,2013-04-13 00:19:00,
2013-04-12 17:24:00,82.2,51.8,29.74,WNW,293,4.0,7.0,35,0.00,,,0.00,346.0,WUHU216DAVISVP2,2013-04-13 00:24:00,
2013-04-12 17:29:00,81.6,51.3,29.74,WNW,284,5.0,6.0,35,0.00,,,0.00,327.0,WUHU216DAVISVP2,2013-04-13 00:29:00,
2013-04-12 17:34:00,81.0,51.5,29.74,WNW,294,3.0,7.0,36,0.00,,,0.00,299.0,WUHU216DAVISVP2,2013-04-13 00:34:00,
2013-04-12 17:39:00,81.3,51.8,29.74,WNW,302,2.0,7.0,36,0.00,,,0.00,318.0,WUHU216DAVISVP2,2013-04-13 00:39:00,
2013-04-12 17:44:00,81.8,52.1,29.74,NNW,333,5.0,7.0,36,0.00,,,0.00,279.0,WUHU216DAVISVP2,2013-04-13 00:44:00,
2013-04-12 17:49:00,82.0,52.3,29.74,North,350,4.0,7.0,36,0.00,,,0.00,290.0,WUHU216DAVISVP2,2013-04-13 00:49:00,
2013-04-12 17:54:00,81.7,51.3,29.74,WNW,290,2.0,6.0,35,0.00,,,0.00,260.0,WUHU216DAVISVP2,2013-04-13 00:54:00,
2013-04-12 17:59:00,81.4,51.8,29.74,NNW,331,2.0,6.0,36,0.00,,,0.00,216.0,WUHU216DAVISVP2,2013-04-13 00:59:00,
2013-04-12 18:04:00,81.7,52.8,29.74,NNW,330,2.0,6.0,37,0.00,,,0.00,211.0,WUHU216DAVISVP2,2013-04-13 01:04:00,
2013-04-12 18:09:00,82.0,52.3,29.74,NNW,337,1.0,7.0,36,0.00,,,0.00,213.0,WUHU216DAVISVP2,2013-04-13 01:09:00,
2013-04-12 18:14:00,82.1,51.6,29.74,NNW,339,4.0,7.0,35,0.00,,,0.00,195.0,WUHU216DAVISVP2,2013-04-13 01:14:00,
2013-04-12 18:19:00,82.0,52.3,29.74,NNW,329,3.0,7.0,36,0.00,,,0.00,178.0,WUHU216DAVISVP2,2013-04-13 01:19:00,
2013-04-12 18:24:00,82.0,51.5,29.74,WNW,292,0.0,5.0,35,0.00,,,0.00,158.0,WUHU216DAVISVP2,2013-04-13 01:24:00,
2013-04-12 18:29:00,81.8,52.1,29.74,NW,305,4.0,5.0,36,0.00,,,0.00,137.0,WUHU216DAVISVP2,2013-04-13 01:29:00,
2013-04-12 18:34:00,81.7,52.0,29.74,NW,305,3.0,5.0,36,0.00,,,0.00,95.0,WUHU216DAVISVP2,2013-04-13 01:34:00,
2013-04-12 18:39:00,81.3,51.7,29.73,NW,305,1.0,5.0,36,0.00,,,0.00,70.0,WUHU216DAVISVP2,2013-04-13 01:39:00,
2013-04-12 18:44:00,81.2,51.6,29.74,NW,305,0.0,5.0,36,0.00,,,0.00,79.0,WUHU216DAVISVP2,2013-04-13 01:44:00,
2013-04-12 18:49:00,81.0,52.2,29.74,NW,305,1.0,5.0,37,0.00,,,0.00,69.0,WUHU216DAVISVP2,2013-04-13 01:49:00,
2013-04-12 18:54:00,80.9,52.1,29.74,NW,305,1.0,5.0,37,0.00,,,0.00,53.0,WUHU216DAVISVP2,2013-04-13 01:54:00,
2013-04-12 18:59:00,80.9,52.2,29.73,NW,305,0.0,4.0,37,0.00,,,0.00,32.0,WUHU216DAVISVP2,2013-04-13 01:59:00,
2013-04-12 19:04:00,80.6,51.9,29.73,NW,305,1.0,4.0,37,0.00,,,0.00,26.0,WUHU216DAVISVP2,2013-04-13 02:04:00,
2013-04-12 19:09:00,80.2,52.3,29.74,NW,305,0.0,2.0,38,0.00,,,0.00,16.0,WUHU216DAVISVP2,2013-04-13 02:09:00,
2013-04-12 19:14:00,79.7,51.8,29.74,NW,305,0.0,2.0,38,0.00,,,0.00,12.0,WUHU216DAVISVP2,2013-04-13 02:14:00,
2013-04-12 19:19:00,79.4,52.3,29.74,NW,305,1.0,2.0,39,0.00,,,0.00,11.0,WUHU216DAVISVP2,2013-04-13 02:19:00,
2013-04-12 19:24:00,79.1,52.7,29.74,NW,305,0.0,2.0,40,0.00,,,0.00,9.0,WUHU216DAVISVP2,2013-04-13 02:24:00,
2013-04-12 19:29:00,78.8,52.4,29.74,NW,305,0.0,2.0,40,0.00,,,0.00,5.0,WUHU216DAVISVP2,2013-04-13 02:29:00,
2013-04-12 19:34:00,78.5,52.1,29.74,NW,305,0.0,2.0,40,0.00,,,0.00,0.0,WUHU216DAVISVP2,2013-04-13 02:34:00,
2013-04-12 19:39:00,78.2,52.5,29.74,NW,305,0.0,2.0,41,0.00,,,0.00,0.0,WUHU216DAVISVP2,2013-04-13 02:39:00,
2013-04-12 19:44:00,77.8,52.1,29.74,NW,305,0.0,2.0,41,0.00,,,0.00,0.0,WUHU216DAVISVP2,2013-04-13 02:44:00,
2013-04-12 19:49:00,77.3,52.4,29.75,NW,305,0.0,2.0,42,0.00,,,0.00,0.0,WUHU216DAVISVP2,2013-04-13 02:49:00,
2013-04-12 19:54:00,77.0,52.8,29.75,NW,305,0.0,2.0,43,0.00,,,0.00,0.0,WUHU216DAVISVP2,2013-04-13 02:54:00,
2013-04-12 19:59:00,76.6,52.4,29.75,NW,305,0.0,3.0,43,0.00,,,0.00,0.0,WUHU216DAVISVP2,2013-04-13 02:59:00,
2013-04-12 20:04:00,76.2,52.7,29.75,NW,305,2.0,3.0,44,0.00,,,0.00,0.0,WUHU216DAVISVP2,2013-04-13 03:04:00,
2013-04-12 20:09:00,75.7,52.8,29.75,NW,305,3.0,5.0,45,0.00,,,0.00,0.0,WUHU216DAVISVP2,2013-04-13 03:09:00,
2013-04-12 20:14:00,75.3,52.5,29.76,NW,305,2.0,5.0,45,0.00,,,0.00,0.0,WUHU216DAVISVP2,2013-04-13 03:14:00,
2013-04-12 20:19:00,74.8,53.2,29.76,NW,305,1.0,5.0,47,0.00,,,0.00,0.0,WUHU216DAVISVP2,2013-04-13 03:19:00,
2013-04-12 20:24:00,74.2,52.7,29.76,WNW,291,3.0,6.0,47,0.00,,,0.00,0.0,WUHU216DAVISVP2,2013-04-13 03:24:00,
2013-04-12 20:29:00,73.7,52.8,29.76,WNW,286,2.0,6.0,48,0.00,,,0.00,0.0,WUHU216DAVISVP2,2013-04-13 03:29:00,
2013-04-12 20:34:00,73.2,51.8,29.76,WNW,289,6.0,6.0,47,0.00,,,0.00,0.0,WUHU216DAVISVP2,2013-04-13 03:34:00,
2013-04-12 20:39:00,72.8,51.4,29.76,WNW,287,4.0,6.0,47,0.00,,,0.00,0.0,WUHU216DAVISVP2,2013-04-13 03:39:00,
2013-04-12 20:44:00,72.3,51.0,29.77,West,274,4.0,6.0,47,0.00,,,0.00,0.0,WUHU216DAVISVP2,2013-04-13 03:44:00,
2013-04-12 20:49:00,71.8,51.0,29.77,WNW,292,3.0,6.0,48,0.00,,,0.00,0.0,WUHU216DAVISVP2,2013-04-13 03:49:00,
2013-04-12 20:54:00,71.3,51.2,29.77,WNW,296,3.0,6.0,49,0.00,,,0.00,0.0,WUHU216DAVISVP2,2013-04-13 03:54:00,
2013-04-12 20:59:00,71.0,50.9,29.77,WNW,296,5.0,6.0,49,0.00,,,0.00,0.0,WUHU216DAVISVP2,2013-04-13 03:59:00,
2013-04-12 21:00:00,70.9,50.8,29.77,WNW,296,2.0,6.0,49,0.00,,,0.00,0.0,WUHU216DAVISVP2,2013-04-13 04:00:00,
2013-04-12 21:05:00,70.7,50.6,29.77,WNW,296,2.0,6.0,49,0.00,,,0.00,0.0,WUHU216DAVISVP2,2013-04-13 04:05:00,
2013-04-12 21:10:00,70.5,50.4,29.78,WNW,296,3.0,6.0,49,0.00,,,0.00,0.0,WUHU216DAVISVP2,2013-04-13 04:10:00,
2013-04-12 21:15:00,70.4,50.9,29.78,WNW,296,3.0,5.0,50,0.00,,,0.00,0.0,WUHU216DAVISVP2,2013-04-13 04:15:00,
2013-04-12 21:20:00,70.1,50.7,29.78,WNW,296,0.0,4.0,50,0.00,,,0.00,0.0,WUHU216DAVISVP2,2013-04-13 04:20:00,
2013-04-12 21:25:00,69.9,50.4,29.78,WNW,296,0.0,4.0,50,0.00,,,0.00,0.0,WUHU216DAVISVP2,2013-04-13 04:25:00,
2013-04-12 21:30:00,69.7,50.8,29.78,WNW,296,0.0,4.0,51,0.00,,,0.00,0.0,WUHU216DAVISVP2,2013-04-13 04:30:00,
2013-04-12 21:35:00,69.5,50.6,29.78,WNW,296,0.0,3.0,51,0.00,,,0.00,0.0,WUHU216DAVISVP2,2013-04-13 04:35:00,
2013-04-12 21:40:00,69.3,51.0,29.78,WNW,296,0.0,2.0,52,0.00,,,0.00,0.0,WUHU216DAVISVP2,2013-04-13 04:40:00,
2013-04-12 21:45:00,68.9,51.2,29.78,WNW,296,0.0,2.0,53,0.00,,,0.00,0.0,WUHU216DAVISVP2,2013-04-13 04:45:00,
2013-04-12 21:50:00,68.5,51.3,29.79,WNW,296,0.0,2.0,54,0.00,,,0.00,0.0,WUHU216DAVISVP2,2013-04-13 04:50:00,
2013-04-12 21:55:00,68.2,51.5,29.79,WNW,296,0.0,2.0,55,0.00,,,0.00,0.0,WUHU216DAVISVP2,2013-04-13 04:55:00,
2013-04-12 22:00:00,67.9,51.6,29.79,WNW,296,0.0,2.0,56,0.00,,,0.00,0.0,WUHU216DAVISVP2,2013-04-13 05:00:00,
2013-04-12 22:05:00,67.6,51.3,29.79,WNW,296,0.0,2.0,56,0.00,,,0.00,0.0,WUHU216DAVISVP2,2013-04-13 05:05:00,
2013-04-12 22:10:00,67.4,52.1,29.79,WNW,296,0.0,1.0,58,0.00,,,0.00,0.0,WUHU216DAVISVP2,2013-04-13 05:10:00,
2013-04-12 22:15:00,67.2,52.1,29.79,WNW,296,0.0,1.0,58,0.00,,,0.00,0.0,WUHU216DAVISVP2,2013-04-13 05:15:00,
2013-04-12 22:20:00,66.8,52.6,29.79,WNW,296,0.0,0.0,60,0.00,,,0.00,0.0,WUHU216DAVISVP2,2013-04-13 05:20:00,
2013-04-12 22:25:00,66.2,52.1,29.80,WNW,296,0.0,0.0,60,0.00,,,0.00,0.0,WUHU216DAVISVP2,2013-04-13 05:25:00,
2013-04-12 22:30:00,65.9,52.7,29.79,WNW,296,0.0,0.0,62,0.00,,,0.00,0.0,WUHU216DAVISVP2,2013-04-13 05:30:00,
2013-04-12 22:35:00,65.6,52.8,29.79,WNW,296,0.0,0.0,63,0.00,,,0.00,0.0,WUHU216DAVISVP2,2013-04-13 05:35:00,
2013-04-12 22:40:00,65.2,52.9,29.79,WNW,296,0.0,0.0,64,0.00,,,0.00,0.0,WUHU216DAVISVP2,2013-04-13 05:40:00,
2013-04-12 22:45:00,64.9,52.4,29.80,WNW,296,0.0,0.0,64,0.00,,,0.00,0.0,WUHU216DAVISVP2,2013-04-13 05:45:00,
2013-04-12 22:50:00,64.7,52.7,29.79,WNW,296,0.0,0.0,65,0.00,,,0.00,0.0,WUHU216DAVISVP2,2013-04-13 05:50:00,
2013-04-12 22:55:00,64.5,52.9,29.79,WNW,296,0.0,0.0,66,0.00,,,0.00,0.0,WUHU216DAVISVP2,2013-04-13 05:55:00,
2013-04-12 23:00:00,64.1,52.9,29.79,WNW,296,0.0,0.0,67,0.00,,,0.00,0.0,WUHU216DAVISVP2,2013-04-13 06:00:00,
2013-04-12 23:05:00,63.6,52.8,29.79,WNW,296,0.0,0.0,68,0.00,,,0.00,0.0,WUHU216DAVISVP2,2013-04-13 06:05:00,
2013-04-12 23:10:00,63.5,52.7,29.79,WNW,296,0.0,0.0,68,0.00,,,0.00,0.0,WUHU216DAVISVP2,2013-04-13 06:10:00,
2013-04-12 23:15:00,63.6,52.8,29.80,WNW,296,0.0,0.0,68,0.00,,,0.00,0.0,WUHU216DAVISVP2,2013-04-13 06:15:00,
2013-04-12 23:20:00,63.6,52.6,29.80,WNW,296,0.0,0.0,67,0.00,,,0.00,0.0,WUHU216DAVISVP2,2013-04-13 06:20:00,
2013-04-12 23:25:00,63.5,52.9,29.80,WNW,296,0.0,0.0,68,0.00,,,0.00,0.0,WUHU216DAVISVP2,2013-04-13 06:25:00,
2013-04-12 23:30:00,63.3,52.7,29.80,WNW,296,0.0,0.0,68,0.00,,,0.00,0.0,WUHU216DAVISVP2,2013-04-13 06:30:00,
2013-04-12 23:36:00,63.1,53.3,29.80,WNW,296,0.0,0.0,70,0.00,,,0.00,0.0,WUHU216DAVISVP2,2013-04-13 06:36:00,
2013-04-12 23:41:00,62.6,52.8,29.80,WNW,296,0.0,0.0,70,0.00,,,0.00,0.0,WUHU216DAVISVP2,2013-04-13 06:41:00,
2013-04-12 23:46:00,62.5,52.7,29.80,WNW,296,0.0,0.0,70,0.00,,,0.00,0.0,WUHU216DAVISVP2,2013-04-13 06:46:00,
2013-04-12 23:51:00,62.5,52.3,29.80,WNW,296,0.0,0.0,69,0.00,,,0.00,0.0,WUHU216DAVISVP2,2013-04-13 06:51:00,
2013-04-12 23:56:00,62.9,52.3,29.80,WNW,296,0.0,0.0,68,0.00,,,0.00,0.0,WUHU216DAVISVP2,2013-04-13 06:56:00,